DW3823 Weather Reports


Display with metric or nautical units.
time (UTC)temp
F
wind
direction
speed
MPH
gust
MPH
rain 1hr
in
rain 24hr
in
rain mn
in
humidity
%
barometer
mb
20260902215003 94 294 0.0 3.0 0.00 0.00 0.00 51 1016.1
20260902214507 93 106 0.0 3.0 0.00 0.00 0.00 55 1016.2
20260902214004 94 117 1.0 3.0 0.00 0.00 0.00 51 1016.2
20260902213503 94 121 1.0 3.0 0.00 0.00 0.00 50 1016.2
20260902213005 95 282 0.0 2.0 0.00 0.00 0.00 52 1016.3
20260902212503 95 282 1.0 2.0 0.00 0.00 0.00 50 1016.2
20260902212003 95 283 0.0 2.0 0.00 0.00 0.00 51 1016.2
20260902211502 94 283 0.0 2.0 0.00 0.00 0.00 51 1016.3
20260902211005 95 277 0.0 4.0 0.00 0.00 0.00 51 1016.3
20260902210502 95 277 2.0 6.0 0.00 0.00 0.00 48 1016.3
20260902210002 95 261 1.0 6.0 0.00 0.00 0.00 50 1016.3
20260902205501 95 314 1.0 4.0 0.00 0.00 0.00 53 1016.3
20260902205001 95 29 1.0 4.0 0.00 0.00 0.00 51 1016.2
20260902204601 94 294 1.0 4.0 0.00 0.00 0.00 50 1016.1
20260902204102 94 98 1.0 4.0 0.00 0.00 0.00 50 1016.2
20260902203559 94 25 1.0 4.0 0.00 0.00 0.00 52 1016.2
20260902203106 94 348 0.0 2.0 0.00 0.00 0.00 51 1016.3
20260902202557 94 5 1.0 3.0 0.00 0.00 0.00 52 1016.5
20260902202057 93 5 1.0 3.0 0.00 0.00 0.00 53 1016.5
20260902201557 93 360 0.0 2.0 0.00 0.00 0.00 57 1016.7
20260902201058 92 5 0.0 2.0 0.00 0.00 0.00 59 1016.7
20260902200557 91 5 0.0 3.0 0.00 0.00 0.00 56 1016.9
20260902200054 93 5 1.0 4.0 0.00 0.00 0.00 52 1017.0
20260902195557 94 301 2.0 4.0 0.00 0.00 0.00 52 1017.1
20260902195055 94 22 1.0 4.0 0.00 0.00 0.00 50 1017.2
20260902194554 94 66 1.0 10.0 0.00 0.00 0.00 53 1017.0
20260902194057 94 43 1.0 10.0 0.00 0.00 0.00 51 1017.1
20260902193556 95 220 2.0 3.0 0.00 0.00 0.00 52 1017.2
20260902193059 94 90 1.0 5.0 0.00 0.00 0.00 51 1017.2
20260902192554 95 164 1.0 5.0 0.00 0.00 0.00 51 1017.3
20260902192052 95 75 1.0 3.0 0.00 0.00 0.00 51 1017.4
20260902191558 95 347 1.0 4.0 0.00 0.00 0.00 50 1017.3
20260902191051 95 259 2.0 4.0 0.00 0.00 0.00 49 1017.3
20260902190552 95 226 2.0 4.0 0.00 0.00 0.00 52 1017.3
20260902190051 94 296 2.0 6.0 0.00 0.00 0.00 52 1017.4
20260902185552 94 168 3.0 6.0 0.00 0.00 0.00 49 1017.4
20260902185051 95 133 3.0 6.0 0.00 0.00 0.00 49 1017.6
20260902184555 96 269 2.0 5.0 0.00 0.00 0.00 50 1017.6
20260902184051 95 180 1.0 5.0 0.00 0.00 0.00 51 1017.8
20260902183553 95 261 1.0 4.0 0.00 0.00 0.00 49 1017.7
20260902183050 95 5 1.0 7.0 0.00 0.00 0.00 51 1017.8
20260902182551 95 215 2.0 7.0 0.00 0.00 0.00 52 1017.9
20260902182051 95 116 2.0 4.0 0.00 0.00 0.00 54 1018.0
20260902181548 93 123 1.0 5.0 0.00 0.00 0.00 54 1018.1
20260902181048 93 290 1.0 5.0 0.00 0.00 0.00 51 1018.0
20260902180547 94 313 2.0 4.0 0.00 0.00 0.00 53 1018.0
20260902180046 94 286 1.0 4.0 0.00 0.00 0.00 54 1018.1
20260902175546 93 327 1.0 5.0 0.00 0.00 0.00 56 1018.2
20260902175047 94 59 2.0 6.0 0.00 0.00 0.00 52 1018.1
20260902174553 94 232 3.0 6.0 0.00 0.00 0.00 55 1018.1
20260902174045 93 290 1.0 4.0 0.00 0.00 0.00 57 1018.1
20260902173543 92 355 1.0 6.0 0.00 0.00 0.00 58 1018.2
20260902173041 92 276 2.0 6.0 0.00 0.00 0.00 59 1018.4
20260902172543 90 87 1.0 3.0 0.00 0.00 0.00 60 1018.4
20260902172041 90 290 0.0 2.0 0.00 0.00 0.00 58 1018.4
20260902171540 89 284 0.0 2.0 0.00 0.00 0.00 68 1018.5
20260902171039 89 284 0.0 3.0 0.00 0.00 0.00 63 1018.7
20260902170538 90 282 1.0 3.0 0.00 0.00 0.00 59 1018.9
20260902170038 90 283 1.0 3.0 0.00 0.00 0.00 61 1018.9
20260902165538 88 210 0.0 2.0 0.00 0.00 0.00 66 1019.0
20260902165040 88 210 0.0 2.0 0.00 0.00 0.00 67 1019.0
20260902164537 89 210 1.0 3.0 0.00 0.00 0.00 60 1019.1
20260902164039 90 210 1.0 3.0 0.00 0.00 0.00 59 1019.2
20260902163537 90 210 1.0 4.0 0.00 0.00 0.00 58 1019.1
20260902163037 91 46 1.0 5.0 0.00 0.00 0.00 57 1019.3
20260902162536 92 252 1.0 5.0 0.00 0.00 0.00 57 1019.2
20260902162034 92 303 1.0 5.0 0.00 0.00 0.00 59 1019.3
20260902161536 92 355 0.0 4.0 0.00 0.00 0.00 56 1019.4
20260902161032 92 315 1.0 5.0 0.00 0.00 0.00 57 1019.4
20260902160535 91 168 1.0 4.0 0.00 0.00 0.00 58 1019.4
20260902160040 91 146 1.0 4.0 0.00 0.00 0.00 58 1019.5
20260902155529 91 210 1.0 4.0 0.00 0.00 0.00 59 1019.6
20260902155028 91 249 0.0 7.0 0.00 0.00 0.00 58 1019.4
20260902154526 91 167 3.0 7.0 0.00 0.00 0.00 57 1019.6
20260902154025 91 247 0.0 4.0 0.00 0.00 0.00 57 1019.6
20260902153523 91 248 1.0 5.0 0.00 0.00 0.00 61 1019.8
20260902153022 91 281 2.0 6.0 0.00 0.00 0.00 58 1019.7
20260902152520 90 284 0.0 4.0 0.00 0.00 0.00 58 1019.5
20260902152019 90 295 1.0 4.0 0.00 0.00 0.00 59 1019.6
20260902151517 89 243 1.0 4.0 0.00 0.00 0.00 58 1019.6
20260902151015 90 284 2.0 4.0 0.00 0.00 0.00 59 1019.7
20260902150513 89 14 1.0 4.0 0.00 0.00 0.00 61 1019.5
20260902150012 89 184 2.0 4.0 0.00 0.00 0.00 60 1019.6
20260902145511 89 313 1.0 5.0 0.00 0.00 0.00 62 1019.5
20260902145013 88 295 2.0 5.0 0.00 0.00 0.00 62 1019.5
20260902144507 88 242 2.0 5.0 0.00 0.00 0.00 60 1019.5
20260902144006 87 260 1.0 4.0 0.00 0.00 0.00 65 1019.4
20260902143505 87 260 1.0 4.0 0.00 0.00 0.00 64 1019.5
20260902143004 86 210 1.0 3.0 0.00 0.00 0.00 66 1019.4
20260902142502 85 208 1.0 3.0 0.00 0.00 0.00 68 1019.4
20260902142101 85 185 1.0 3.0 0.00 0.00 0.00 67 1019.5
20260902141600 84 185 1.0 3.0 0.00 0.00 0.00 69 1019.3
20260902141059 84 186 1.0 3.0 0.00 0.00 0.00 68 1019.3
20260902140600 84 49 0.0 3.0 0.00 0.00 0.00 70 1019.3
20260902140055 84 186 0.0 2.0 0.00 0.00 0.00 72 1019.0
20260902135555 83 185 0.0 3.0 0.00 0.00 0.00 74 1019.2
20260902135053 82 185 0.0 3.0 0.00 0.00 0.00 74 1019.1
20260902134556 81 339 0.0 1.0 0.00 0.00 0.00 77 1019.2
20260902134050 81 337 0.0 1.0 0.00 0.00 0.00 78 1019.1
20260902133550 81 337 0.0 2.0 0.00 0.00 0.00 77 1019.1
20260902133050 80 337 0.0 3.0 0.00 0.00 0.00 77 1019.2
20260902132547 80 337 0.0 3.0 0.00 0.00 0.00 77 1019.2
20260902132045 79 337 1.0 3.0 0.00 0.00 0.00 77 1019.2
20260902131548 79 338 1.0 3.0 0.00 0.00 0.00 79 1019.1
20260902131047 78 338 1.0 3.0 0.00 0.00 0.00 81 1019.2
20260902130541 77 334 0.0 2.0 0.00 0.00 0.00 84 1019.1
20260902130039 76 334 0.0 2.0 0.00 0.00 0.00 87 1019.2
20260902125538 75 334 0.0 2.0 0.00 0.00 0.00 90 1019.1
20260902125037 74 344 0.0 0.0 0.00 0.00 0.00 94 1019.1
20260902124535 73 344 0.0 0.0 0.00 0.00 0.00 95 1019.2
20260902124037 73 344 0.0 0.0 0.00 0.00 0.00 96 1019.1
20260902123533 72 344 0.0 0.0 0.00 0.00 0.00 96 1019.0
20260902123032 72 344 0.0 0.0 0.00 0.00 0.00 96 1019.0
20260902122533 71 344 0.0 0.0 0.00 0.00 0.00 96 1019.0
20260902122031 71 344 0.0 0.0 0.00 0.00 0.00 96 1018.9
20260902121529 71 344 0.0 0.0 0.00 0.00 0.00 96 1018.9
20260902121029 71 344 0.0 0.0 0.00 0.00 0.00 96 1018.8
20260902120528 71 344 0.0 0.0 0.00 0.00 0.00 97 1018.8
20260902120028 71 344 0.0 0.0 0.00 0.00 0.00 97 1018.8
20260902115526 70 344 0.0 0.0 0.00 0.00 0.00 96 1018.7
20260902115026 70 344 0.0 0.0 0.00 0.00 0.00 96 1018.6
20260902114549 70 344 0.0 0.0 0.00 0.00 0.00 96 1018.6
20260902114024 70 344 0.0 0.0 0.00 0.00 0.00 96 1018.6
20260902113525 70 344 0.0 0.0 0.00 0.00 0.00 96 1018.4
20260902113023 70 344 0.0 0.0 0.00 0.00 0.00 96 1018.4
20260902112521 70 344 0.0 0.0 0.00 0.00 0.00 96 1018.3
20260902112023 70 344 0.0 0.0 0.00 0.00 0.00 96 1018.3
20260902111523 70 344 0.0 0.0 0.00 0.00 0.00 96 1018.2
20260902111020 70 344 0.0 0.0 0.00 0.00 0.00 96 1018.2
20260902110520 70 344 0.0 0.0 0.00 0.00 0.00 96 1018.1
20260902110021 70 344 0.0 0.0 0.00 0.00 0.00 96 1018.1
20260902105519 70 344 0.0 0.0 0.00 0.00 0.00 96 1018.1
20260902105018 70 344 0.0 0.0 0.00 0.00 0.00 96 1017.9
20260902104518 71 344 0.0 0.0 0.00 0.00 0.00 96 1017.9
20260902104018 70 344 0.0 0.0 0.00 0.00 0.00 96 1017.9
20260902103518 70 344 0.0 0.0 0.00 0.00 0.00 96 1017.9
20260902103018 70 344 0.0 0.0 0.00 0.00 0.00 96 1017.8
20260902102518 70 344 0.0 0.0 0.00 0.00 0.00 96 1017.8
20260902102017 70 344 0.0 0.0 0.00 0.00 0.00 96 1017.7
20260902101517 70 344 0.0 0.0 0.00 0.00 0.00 95 1017.7
20260902101017 71 344 0.0 0.0 0.00 0.00 0.00 96 1017.8
20260902100517 70 344 0.0 0.0 0.00 0.00 0.00 96 1017.9
20260902100017 70 344 0.0 0.0 0.00 0.00 0.00 96 1017.9
20260902095517 70 344 0.0 0.0 0.00 0.00 0.00 95 1017.8
20260902095016 70 344 0.0 0.0 0.00 0.00 0.00 96 1017.8
20260902094515 71 344 0.0 0.0 0.00 0.00 0.00 96 1017.7
20260902094015 71 344 0.0 0.0 0.00 0.00 0.00 96 1017.8
20260902093515 70 344 0.0 0.0 0.00 0.00 0.00 96 1017.8
20260902093021 70 344 0.0 0.0 0.00 0.00 0.00 95 1017.8
20260902092514 70 344 0.0 0.0 0.00 0.00 0.00 95 1017.9
20260902092017 71 344 0.0 0.0 0.00 0.00 0.00 95 1017.6
20260902091514 71 344 0.0 0.0 0.00 0.00 0.00 95 1017.7
20260902091013 71 344 0.0 0.0 0.00 0.00 0.00 95 1017.5
20260902090513 71 344 0.0 0.0 0.00 0.00 0.00 94 1017.6
20260902090015 71 344 0.0 0.0 0.00 0.00 0.00 94 1017.4
20260902085511 71 344 0.0 0.0 0.00 0.00 0.00 94 1017.5
20260902085011 71 344 0.0 0.0 0.00 0.00 0.00 94 1017.4
20260902084517 71 344 0.0 0.0 0.00 0.00 0.00 94 1017.4
20260902084010 71 344 0.0 0.0 0.00 0.00 0.00 93 1017.2
20260902083509 71 344 0.0 0.0 0.00 0.00 0.00 93 1017.2
20260902083009 71 344 0.0 0.0 0.00 0.00 0.00 93 1017.2
20260902082509 71 344 0.0 0.0 0.00 0.00 0.00 93 1017.2
20260902082010 71 344 0.0 0.0 0.00 0.00 0.00 93 1017.1
20260902081508 71 344 0.0 0.0 0.00 0.00 0.00 92 1017.2
20260902081007 71 344 0.0 0.0 0.00 0.00 0.00 92 1017.1
20260902080509 72 344 0.0 0.0 0.00 0.00 0.00 92 1017.1
20260902080010 72 344 0.0 0.0 0.00 0.00 0.00 93 1017.1
20260902075506 72 344 0.0 0.0 0.00 0.00 0.00 93 1017.1
20260902075006 72 344 0.0 0.0 0.00 0.00 0.00 93 1017.1
20260902074511 72 344 0.0 0.0 0.00 0.00 0.00 93 1017.3
20260902074005 72 344 0.0 0.0 0.00 0.00 0.00 92 1017.2
20260902073508 72 344 0.0 0.0 0.00 0.00 0.00 92 1017.2
20260902073005 72 344 0.0 0.0 0.00 0.00 0.00 92 1017.3
20260902072504 72 344 0.0 0.0 0.00 0.00 0.00 91 1017.3
20260902072003 72 344 0.0 0.0 0.00 0.00 0.00 91 1017.3
20260902071506 72 344 0.0 0.0 0.00 0.00 0.00 91 1017.3
20260902071005 72 344 0.0 0.0 0.00 0.00 0.00 91 1017.1
20260902070504 72 344 0.0 0.0 0.00 0.00 0.00 91 1017.4
20260902070003 73 344 0.0 0.0 0.00 0.00 0.00 91 1017.4
20260902065502 72 344 0.0 0.0 0.00 0.00 0.00 92 1017.5
20260902065004 72 344 0.0 0.0 0.00 0.00 0.00 92 1017.4
20260902064501 72 344 0.0 0.0 0.00 0.00 0.00 92 1017.3
20260902064003 72 344 0.0 0.0 0.00 0.00 0.00 92 1017.3
20260902063501 72 344 0.0 0.0 0.00 0.00 0.00 91 1017.3
20260902063100 72 344 0.0 0.0 0.00 0.00 0.00 91 1017.2
20260902062603 72 344 0.0 0.0 0.00 0.00 0.00 91 1017.3
20260902062100 73 344 0.0 0.0 0.00 0.00 0.00 91 1017.4
20260902061638 73 344 0.0 0.0 0.00 0.00 0.00 91 1017.3
20260902061101 73 344 0.0 0.0 0.00 0.00 0.00 92 1017.3
20260902060559 72 344 0.0 0.0 0.00 0.00 0.00 91 1017.4
20260902060100 72 344 0.0 0.0 0.00 0.00 0.00 91 1017.4
20260902055556 73 344 0.0 0.0 0.00 0.00 0.00 91 1017.3
20260902055056 73 344 0.0 0.0 0.00 0.00 0.00 91 1017.5
20260902054559 73 344 0.0 0.0 0.00 0.00 0.00 91 1017.5
20260902054056 73 360 0.0 0.0 0.00 0.00 0.00 91 1017.4
20260902053555 73 344 0.0 0.0 0.00 0.00 0.00 91 1017.4
20260902053055 73 344 0.0 0.0 0.00 0.00 0.00 91 1017.5
20260902052553 73 344 0.0 0.0 0.00 0.00 0.00 90 1017.5
20260902052056 73 344 0.0 0.0 0.00 0.00 0.00 91 1017.6
20260902051551 73 344 0.0 0.0 0.00 0.00 0.00 91 1017.8
20260902051049 73 344 0.0 0.0 0.00 0.00 0.00 90 1017.6
20260902050547 73 344 0.0 0.0 0.00 0.00 0.00 90 1017.5
20260902050047 73 344 0.0 0.0 0.00 0.00 0.00 90 1017.4
20260902045546 73 344 0.0 0.0 0.00 0.00 0.00 90 1017.3
20260902045046 73 344 0.0 0.0 0.00 0.00 0.00 90 1017.3
20260902044545 73 344 0.0 0.0 0.00 0.00 0.00 90 1017.3
20260902044046 73 344 0.0 0.0 0.00 0.00 0.00 90 1017.3
20260902043545 74 344 0.0 0.0 0.00 0.00 0.00 90 1017.5
20260902043051 73 344 0.0 0.0 0.00 0.00 0.00 90 1017.5
20260902042545 74 344 0.0 0.0 0.00 0.00 0.00 90 1017.5
20260902042045 74 344 0.0 0.0 0.00 0.00 0.00 90 1017.5
20260902041602 74 344 0.0 0.0 0.00 0.00 0.00 90 1017.7
20260902041044 74 344 0.0 0.0 0.00 0.00 0.00 90 1017.7
20260902040548 74 344 0.0 0.0 0.00 0.00 0.00 90 1017.6
20260902040047 74 344 0.0 0.0 0.00 0.00 0.00 90 1017.7
20260902035543 74 344 0.0 0.0 0.00 0.00 0.00 90 1017.8
20260902035043 74 344 0.0 0.0 0.00 0.00 0.00 90 1017.8
20260902034544 74 344 0.0 0.0 0.00 0.00 0.00 90 1017.9
20260902034043 74 344 0.0 0.0 0.00 0.00 0.00 90 1017.8
20260902033543 74 344 0.0 0.0 0.00 0.00 0.00 90 1017.8
20260902033043 74 344 0.0 0.0 0.00 0.00 0.00 90 1017.7
20260902032544 74 344 0.0 0.0 0.00 0.00 0.00 89 1017.7
20260902032043 75 344 0.0 0.0 0.00 0.00 0.00 89 1017.5
20260902031544 75 344 0.0 0.0 0.00 0.00 0.00 90 1017.5
20260902031043 75 344 0.0 0.0 0.00 0.00 0.00 89 1017.7
20260902030542 75 344 0.0 0.0 0.00 0.00 0.00 89 1017.6
20260902030042 75 344 0.0 0.0 0.00 0.00 0.00 89 1017.6
20260902025542 75 344 0.0 0.0 0.00 0.00 0.00 89 1017.7
20260902025042 75 344 0.0 0.0 0.00 0.00 0.00 89 1017.7
20260902024549 75 344 0.0 0.0 0.00 0.00 0.00 88 1017.7
20260902024041 76 344 0.0 0.0 0.00 0.00 0.00 87 1017.7
20260902023541 76 344 0.0 0.0 0.00 0.00 0.00 88 1017.7
20260902023051 75 344 0.0 0.0 0.00 0.00 0.00 89 1017.7
20260902022541 75 344 0.0 0.0 0.00 0.00 0.00 89 1017.8
20260902022042 75 360 0.0 0.0 0.00 0.00 0.00 90 1017.7
20260902021548 75 344 0.0 0.0 0.00 0.00 0.00 90 1017.6
20260902021041 75 360 0.0 0.0 0.00 0.00 0.00 89 1017.7
20260902020541 76 360 0.0 0.0 0.00 0.00 0.00 89 1017.5
20260902020040 76 360 0.0 0.0 0.00 0.00 0.00 89 1017.4
20260902015541 76 360 0.0 0.0 0.00 0.00 0.00 89 1017.4
20260902015041 76 360 0.0 0.0 0.00 0.00 0.00 89 1017.2
20260902014542 76 360 0.0 0.0 0.00 0.00 0.00 88 1017.1
20260902014039 76 344 0.0 0.0 0.00 0.00 0.00 88 1017.1
20260902013539 76 344 0.0 0.0 0.00 0.00 0.00 88 1017.1
20260902013039 76 360 0.0 0.0 0.00 0.00 0.00 88 1017.0
20260902012540 77 360 0.0 0.0 0.00 0.00 0.00 87 1016.9
20260902012039 77 360 0.0 0.0 0.00 0.00 0.00 87 1017.0
20260902011539 77 360 0.0 0.0 0.00 0.00 0.00 87 1017.1
20260902011038 77 360 0.0 0.0 0.00 0.00 0.00 87 1016.8
20260902010538 77 343 0.0 0.0 0.00 0.00 0.00 87 1016.7
20260902010037 78 344 0.0 0.0 0.00 0.00 0.00 86 1016.7
20260902005538 78 344 0.0 0.0 0.00 0.00 0.00 86 1016.8
20260902005038 78 344 0.0 0.0 0.00 0.00 0.00 86 1016.8
20260902004538 78 344 0.0 0.0 0.00 0.00 0.00 86 1016.8
20260902004037 78 344 0.0 0.0 0.00 0.00 0.00 85 1016.9
20260902003536 79 344 0.0 0.0 0.00 0.00 0.00 85 1016.9
20260902003036 79 344 0.0 0.0 0.00 0.00 0.00 84 1016.7
20260902002538 79 344 0.0 0.0 0.00 0.00 0.00 84 1016.8
20260902002037 80 344 0.0 0.0 0.00 0.00 0.00 84 1016.6
20260902001537 80 344 0.0 0.0 0.00 0.00 0.00 83 1016.6
20260902001036 80 344 0.0 0.0 0.00 0.00 0.00 83 1016.5
20260902000537 81 344 0.0 0.0 0.00 0.00 0.00 82 1016.5
20260902000035 81 344 0.0 0.0 0.00 0.00 0.00 82 1016.7
20260901235535 82 344 0.0 0.0 0.00 0.00 0.00 79 1016.6
20260901235033 82 344 0.0 0.0 0.00 0.00 0.00 78 1016.7
20260901234533 83 344 0.0 0.0 0.00 0.00 0.00 78 1016.9
20260901234035 83 344 0.0 0.0 0.00 0.00 0.00 76 1016.7
20260901233533 84 344 0.0 0.0 0.00 0.00 0.00 75 1016.9
20260901233050 84 344 0.0 0.0 0.00 0.00 0.00 75 1016.9
20260901232536 85 344 0.0 1.0 0.00 0.00 0.00 74 1017.0
20260901232033 85 344 0.0 1.0 0.00 0.00 0.00 71 1016.9
20260901231537 86 344 0.0 1.0 0.00 0.00 0.00 72 1016.9
20260901231032 87 344 0.0 1.0 0.00 0.00 0.00 71 1017.0
20260901230533 88 344 0.0 1.0 0.00 0.00 0.00 69 1017.0
20260901230036 88 344 0.0 1.0 0.00 0.00 0.00 64 1017.0
20260901225533 89 344 0.0 1.0 0.00 0.00 0.00 62 1017.1
20260901225033 90 344 0.0 2.0 0.00 0.00 0.00 60 1016.9
20260901224532 90 344 1.0 3.0 0.00 0.00 0.00 58 1016.9
20260901224031 90 58 1.0 3.0 0.00 0.00 0.00 57 1016.7
20260901223531 90 169 0.0 4.0 0.00 0.00 0.00 57 1016.7
20260901223032 91 311 1.0 3.0 0.00 0.00 0.00 57 1016.8
20260901222531 91 307 1.0 3.0 0.00 0.00 0.00 55 1016.8
20260901222031 91 12 1.0 3.0 0.00 0.00 0.00 56 1016.8
20260901221534 91 30 1.0 3.0 0.00 0.00 0.00 55 1016.9
20260901221032 91 34 0.0 3.0 0.00 0.00 0.00 56 1016.9
20260901220530 92 33 0.0 3.0 0.00 0.00 0.00 55 1017.0
20260901220035 92 31 0.0 2.0 0.00 0.00 0.00 52 1017.0
20260901215530 92 31 0.0 2.0 0.00 0.00 0.00 55 1016.9